www.pogodaiklimat.ru

Погода и климат >> Архив погоды >> Великобритания >> Линтон-он-Уз


ПОГОДА в Линтон-он-Узе

  • Прогноз погоды в Линтон-он-Узе
  • Монитор погоды в Линтон-он-Узе

АРХИВ ПОГОДЫ в Линтон-он-Узе

Время (UTC), дата Ветер
(напр.,м/с)
 
Видим.   Явления Облачность Т
(С)
Тd
(С)
f
(%)
Тe
(С)
Тes
(С)
Комфортность P
(гПа)
Po
(гПа)
Тmin
(С)
Tmax
(С)
R
(мм)
R24
(мм)
S
(см)
19 18.08 ЮЗ 7 7000 м н/о +15.3 +11.7 79 +14 +14 1001.9 1000.2
20 18.08 ЮЗ 4 14 км н/о +14.4 +11.3 82 +13 +13 1002.2 1000.5
21 18.08 ЮЗ 4 14 км н/о +14.7 +11.3 80 +14 +14 1002.8 1001.1
22 18.08 ЮЗ 4 13 км н/о +14.1 +11.7 85 +13 +13 1003.3 1001.6
23 18.08 Ю 3 13 км н/о +13.4 +11.3 87 +12 +12 1003.7 1002.1
00 19.08 Ю 2 12 км н/о +12.9 +11.2 89 +12 +12 1004.0 1002.3 0.2
01 19.08 ЮВ 3 12 км н/о +12.9 +11.1 89 +11 +11 1004.3 1002.6
02 19.08 Ю 3 12 км н/о +13.7 +11.3 85 +12 +12 1004.3 1002.7
03 19.08 ЮЗ 3 12 км н/о +13.5 +11.5 88 +12 +12 1004.8 1003.2
04 19.08 ЮЗ 4 16 км н/о +14.1 +11.7 85 +13 +13 1005.3 1003.6
05 19.08 ЮЗ 3 13 км н/о +13.0 +10.8 86 +12 +12 1005.9 1004.3
06 19.08 ЮЗ 5 13 км н/о +13.5 +11.3 87 +12 +12 1006.8 1005.1 +12.7 0.2
07 19.08 З 5 20 км 3/1 450 м
[Cu Sc Ac lent Ci sp]
+14.3 +11.0 81 +13 +14 1007.4 1005.7
08 19.08 З 7 25 км 5/4 600 м
[Cu hum Ac lent Ci sp]
+15.9 +11.0 73 +14 +15 1008.0 1006.3
09 19.08 З 8 30 км 5/4 750 м
[Cu hum Ac trans Cs]
+16.1 +10.2 68 +15 +15 1008.7 1007.0
10 19.08 З 7 30 км 5/5 1020 м
[Cu Sc Ac trans]
+17.3 +10.1 63 +16 +18 1009.1 1007.5
11 19.08 З 7 30 км 5/5 1140 м
[Cu hum Ac trans Cs]
+17.8 +8.6 55 +17 +18 1009.6 1007.9
12 19.08 З 8 8000 м осадки на расстоянии 8/8 900 м
[Cu Sc]
+18.0 +9.3 57 +17 +18 1010.1 1008.4
13 19.08 З 7 25 км в посл. час ливневой дождь 8/8 900 м
[Cu Sc Ac cuf]
+17.0 +11.2 69 +16 +17 1010.8 1009.2
14 19.08 З 8 30 км слаб. ливневой дождь 6/6 1050 м
[Sc diur, vesp]
+17.3 +8.7 57 +16 +17 1011.0 1009.4
15 19.08 З 8
{13}
30 км в посл. час ливневой дождь 3/3 1200 м
[Cu med, cong Ac trans Ci sp]
+18.9 +8.3 50 +19 +19 1011.3 1009.7
16 19.08 З 7
{14}
40 км 1/1 1200 м
[Cu med, cong Ci sp]
+18.2 +8.3 52 +18 +19 1011.7 1010.0
17 19.08 З 7
{13}
23 км н/о +17.8 +9.1 57 +17 +17 1011.8 1010.2
18 19.08 З 6
{13}
25 км н/о +16.8 +8.3 57 +16 +16 1012.3 1010.7 +19.7 0.0
19 19.08 З 5 22 км н/о +15.6 +9.6 67 +14 +14 1012.9 1011.2
20 19.08 ЮЗ 3 19 км н/о +14.1 +9.5 74 +13 +13 1013.5 1011.9
21 19.08 ЮЗ 3 18 км н/о +13.7 +9.4 75 +13 +13 1013.9 1012.2
22 19.08 Ю 2 17 км н/о +13.3 +9.6 78 +13 +13 1014.3 1012.6
23 19.08 Ю 3 17 км н/о +12.6 +9.7 82 +11 +11 1014.7 1013.0
00 20.08 Ю 3 20 км н/о +13.1 +10.4 84 +12 +12 1014.9 1013.2
01 20.08 ЮЗ 4 18 км н/о +12.2 +10.0 86 +10 +10 1014.9 1013.2
02 20.08 ЮЗ 3 18 км н/о +12.6 +10.2 85 +11 +11 1015.0 1013.3
03 20.08 З 2 22 км н/о +12.4 +9.8 84 +11 +11 1015.6 1013.9
04 20.08 ЮЗ 1 17 км н/о +11.6 +9.6 88 +12 +12 1016.0 1014.3
05 20.08 ЮЗ 4 15 км н/о +11.1 +9.6 90 +9 +9 1016.4 1014.7
06 20.08 ЮЗ 4 16 км н/о +11.9 +10.2 89 +10 +10 1017.0 1015.3 +10.7
07 20.08 ЮЗ 5 17 км н/о +13.6 +10.8 83 +12 +12 1017.6 1015.9
08 20.08 З 5 19 км н/о +14.7 +10.2 74 +13 +13 1018.3 1016.6
09 20.08 З 6 20 км н/о +16.1 +10.0 67 +15 +15 1018.8 1017.1
10 20.08 З 7 22 км н/о +17.0 +8.0 55 +16 +16 1019.4 1017.7
11 20.08 З 5 21 км н/о +16.8 +7.8 55 +16 +16 1019.8 1018.1
12 20.08 З 5 22 км н/о +15.6 +9.1 65 +14 +14 1020.2 1018.6
13 20.08 З 7 23 км н/о +17.3 +7.9 54 +16 +16 1020.6 1018.9
14 20.08 З 6 30 км 9/9 900 м
[Cu Sc Ac trans]
+17.1 +8.9 58 +16 +17 1021.0 1019.3
15 20.08 З 5 30 км 9/9 1080 м
[Cu Sc Ac trans]
+17.6 +9.0 57 +17 +17 1021.2 1019.5
16 20.08 З 5 35 км 8/8 1140 м
[Cu Sc]
+17.6 +9.2 58 +17 +18 1021.6 1019.9
17 20.08 З 6 21 км н/о +17.9 +8.0 52 +17 +17 1022.2 1020.5
18 20.08 З 6 20 км н/о +16.2 +7.3 56 +15 +15 1022.8 1021.1 +18.9
19 20.08 З 3 19 км н/о +14.7 +7.6 62 +14 +14 1023.3 1021.6
20 20.08 ЮВ 2 18 км н/о +13.2 +7.5 68 +13 +13 1023.5 1021.8
21 20.08 Ю 2 17 км н/о +12.9 +7.8 71 +13 +13 1023.5 1021.8
22 20.08 ЮВ 2 15 км н/о +11.8 +7.7 76 +11 +11 1023.8 1022.1
23 20.08 Ю 2 16 км н/о +12.5 +8.0 74 +12 +12 1023.8 1022.1
00 21.08 Ю 2 16 км н/о +12.6 +9.4 81 +12 +12 1023.8 1022.1 0.2
01 21.08 Ю 3 11 км н/о +12.4 +11.4 94 +11 +11 1023.6 1021.9
02 21.08 Ю 3 7000 м н/о +12.9 +12.2 96 +11 +11 1023.5 1021.8
03 21.08 Ю 3 9000 м н/о +12.9 +12.3 96 +11 +11 1023.4 1021.6
04 21.08 Ю 3 10 км н/о +12.8 +12.1 96 +11 +11 1023.3 1021.6
05 21.08 ЮВ 2 10 км н/о +12.7 +12.1 96 +12 +12 1023.4 1021.7
06 21.08 Ю 2 12 км н/о +13.3 +12.6 96 +12 +12 1023.7 1022.0 +11.7 0.4
07 21.08 ЮВ 3 14 км н/о +14.3 +13.0 92 +13 +13 1023.9 1022.2
08 21.08 ЮЗ 5 15 км 6/1 420 м
[Cu Sc Ac trans Ci sp]
+16.0 +13.0 82 +15 +17 1024.0 1022.4
09 21.08 ЮЗ 4 30 км 5/3 600 м
[Cu Sc Ac trans Ci sp]
+16.8 +12.5 76 +16 +19 1024.1 1022.4
10 21.08 ЮЗ 6 30 км 5/3 840 м
[Cu med, cong Ac trans Ci sp]
+18.6 +11.9 65 +19 +21 1023.8 1022.2
11 21.08 ЮЗ 6 40 км 5/3 900 м
[Cu med, cong Ac trans Cs]
+19.8 +12.5 63 +21 +24 комфорт 1023.5 1021.8
12 21.08 ЮЗ 7 40 км 6/3 1050 м
[Cu Sc Ac trans Cs]
+20.5 +11.5 56 +22 +24 комфорт 1023.5 1021.8
13 21.08 ЮЗ 6 40 км 8/1 1140 м
[Cu med, cong Ac cuf Cs]
+19.7 +11.4 59 +21 +23 комфорт 1023.1 1021.4
14 21.08 ЮЗ 7 40 км 9/1 1200 м
[Cu med, cong Ac cuf Cs]
+19.8 +10.5 55 +21 +22 комфорт 1022.7 1021.0
15 21.08 ЮЗ 6 40 км 9/3 1200 м
[Cu Sc Ac cuf Cs]
+20.1 +10.9 55 +21 +22 комфорт 1022.1 1020.4
16 21.08 Ю 7
{13}
40 км осадки на расстоянии 9/8 1050 м
[Cu Sc Cs]
+18.4 +12.1 67 +18 +18 1022.0 1020.3
17 21.08 ЮЗ 5 5000 м н/о +18.3 +12.4 68 +18 +18 1021.9 1020.2
18 21.08 ЮЗ 6 24 км н/о +17.5 +12.5 72 +17 +17 1021.6 1019.9 +20.8 0.4
19 21.08 ЮЗ 6 24 км н/о +17.4 +12.1 71 +17 +17 1021.3 1019.6
20 21.08 Ю 6 24 км н/о +16.7 +11.9 73 +16 +16 1021.2 1019.5
21 21.08 Ю 5 22 км н/о +16.6 +12.0 74 +16 +16 1020.8 1019.1
22 21.08 Ю 3 27 км н/о +16.3 +11.6 74 +16 +16 1020.8 1019.1
23 21.08 Ю 6 26 км н/о +16.4 +11.0 70 +15 +15 1020.2 1018.5
00 22.08 ЮЗ 5 27 км н/о +16.3 +10.4 68 +15 +15 1019.8 1018.2
01 22.08 Ю 7 28 км н/о +16.5 +10.1 66 +15 +15 1019.3 1017.6
02 22.08 ЮЗ 6 23 км н/о +16.3 +10.3 68 +15 +15 1019.2 1017.5
03 22.08 ЮЗ 6 27 км н/о +15.8 +10.9 73 +14 +14 1018.7 1017.0
04 22.08 ЮЗ 6 28 км н/о +15.7 +11.4 76 +14 +14 1018.5 1016.8
05 22.08 ЮЗ 4 28 км н/о +15.3 +12.0 81 +14 +14 1018.8 1017.1
06 22.08 ЮЗ 4 25 км н/о +15.0 +12.8 87 +14 +14 1018.8 1017.2 +15.0
07 22.08 Ю 4 28 км н/о +15.9 +13.2 84 +15 +15 1019.0 1017.3
08 22.08 ЮЗ 6 15 км 10/9 360 м
[Cu Sc As op]
+16.7 +13.7 82 +16 +16 1019.1 1017.4
09 22.08 ЮЗ 7 15 км 9/9 480 м
[Cu Sc Ac trans]
+17.6 +13.6 77 +17 +17 1019.2 1017.5
10 22.08 ЮЗ 7 10 км слаб. дождь 9/9 600 м
[Cu Sc As op]
+18.3 +13.7 75 +18 +18 1019.3 1017.6
11 22.08 ЮЗ 6 15 км в посл. час дождь 9/9 480 м
[Cu Sc]
+17.7 +14.6 82 +17 +17 1019.5 1017.8
12 22.08 ЮЗ 7 25 км {дождь} 10/9 600 м
[Cu Sc Ac As]
+19.0 +14.4 75 +20 +20 1019.5 1017.8 0.0
13 22.08 Ю 6 5000 м слаб. ливневой дождь 10/10 360 м
[Cu Sc]
+18.1 +15.6 85 +18 +18 1019.5 1017.8
14 22.08 ЮЗ 7 5000 м в посл. час ливневой дождь 10/10 270 м
[Cu Sc]
+18.0 +16.4 90 +17 +17 1019.3 1017.7
15 22.08 ЮЗ 6 3000 м дождь {ливн. осадки} 10/10 360 м
[Cu Sc]
+18.3 +16.2 88 +18 +18 1019.2 1017.6
16 22.08 ЮЗ 3 28 км н/о +18.7 +16.6 88 +20 +20 1019.1 1017.4
17 22.08 З 6 29 км н/о +20.3 +15.8 75 +23 +23 комфорт 1018.9 1017.2
18 22.08 ЮЗ 7 30 км н/о +20.0 +15.2 74 +22 +22 комфорт 1019.0 1017.4 +20.5 0.4
19 22.08 ЮЗ 7 28 км н/о +18.8 +14.8 78 +19 +19 1019.6 1017.9
20 22.08 ЮЗ 5 23 км н/о +18.5 +14.6 78 +19 +19 1020.5 1018.8
21 22.08 ЮЗ 4 25 км н/о +18.2 +14.9 81 +18 +18 1021.0 1019.3
22 22.08 ЮЗ 4 24 км н/о +18.0 +14.9 82 +18 +18 1021.6 1019.9
23 22.08 ЮЗ 5 25 км н/о +17.6 +14.7 83 +17 +17 1021.8 1020.1
00 23.08 ЮЗ 3 23 км н/о +17.2 +14.7 85 +17 +17 1021.9 1020.2
01 23.08 Ю 2 20 км н/о +16.3 +14.5 89 +16 +16 1021.8 1020.1
02 23.08 Ю 1 15 км н/о +15.7 +14.3 91 +17 +17 1021.8 1020.1
03 23.08 ЮВ 3 11 км н/о +15.5 +14.3 93 +15 +15 1022.1 1020.4
04 23.08 Ю 2 11 км н/о +16.0 +14.5 91 +16 +16 1022.1 1020.4
05 23.08 Ю 4 11 км н/о +16.4 +14.6 89 +16 +16 1022.1 1020.4
06 23.08 ЮЗ 4 11 км н/о +16.1 +14.5 90 +15 +15 1022.6 1020.9 +15.5
07 23.08 Ю 4 12 км н/о +17.3 +15.2 87 +17 +17 1023.1 1021.4
08 23.08 ЮЗ 3 25 км 5/3 500 м
[Sc Ac lent Ci sp]
+18.9 +15.3 80 +20 +23 1023.4 1021.7
09 23.08 ЮЗ 4 30 км 5/1 600 м
[Cu Sc Ci sp]
+20.1 +15.0 72 +23 +27 комфорт 1023.2 1021.6
10 23.08 ЮЗ 4 30 км 3/1 750 м
[Cu hum Ci sp]
+21.2 +15.1 68 +24 +29 комфорт 1023.0 1021.3
11 23.08 ЮЗ 3 40 км 3/1 900 м
[Cu hum Ac lent Ci sp]
+23.2 +15.4 62 +27 +35 душно 1022.8 1021.2
12 23.08 ЮЗ 3 25 км 3/3 1000 м
[Cu hum Ci fib]
+23.7 +15.7 61 +27 +34 жарко 1022.4 1020.8
13 23.08 ЮЗ 3 30 км 4/4 1140 м
[Cu hum Ci sp]
+24.1 +15.5 59 +27 +33 жарко 1022.3 1020.6
14 23.08 З 1 30 км 1/1 1200 м
[Cu hum Ci sp]
+25.3 +16.4 58 +29 +39 душно 1021.7 1020.1
15 23.08 ЮЗ 4 30 км 1/1 1200 м
[Cu hum Ci sp]
+25.6 +16.6 58 +29 +34 душно 1021.3 1019.7
16 23.08 З 4 30 км 1/1 1200 м
[Cu hum]
+25.1 +16.6 59 +29 +31 душно 1021.1 1019.4
17 23.08 З 4 19 км н/о +24.6 +16.3 60 +28 +28 душно 1020.9 1019.2
18 23.08 З 3 18 км н/о +24.0 +15.9 61 +27 +27 жарко 1020.6 1018.9 +25.9
19 23.08 штиль 0 18 км н/о +23.0 +15.6 63 +27 +27 душно 1020.6 1019.0
20 23.08 ЮЗ 2 15 км н/о +21.4 +15.5 69 +25 +25 комфорт 1020.8 1019.1
21 23.08 Ю 1 13 км н/о +19.0 +15.4 80 +21 +21 комфорт 1020.8 1019.2
22 23.08 С 1 12 км н/о +17.0 +14.2 84 +18 +18 1020.6 1018.9
23 23.08 В 1 12 км н/о +17.2 +15.4 89 +18 +18 1020.4 1018.7
00 24.08 ЮВ 2 11 км н/о +16.7 +14.8 89 +17 +17 1020.4 1018.8
01 24.08 В 1 14 км н/о +16.2 +14.8 91 +18 +18 1020.5 1018.8
02 24.08 В 1 13 км н/о +15.2 +14.2 94 +16 +16 1020.5 1018.8
03 24.08 В 1 10 км н/о +14.0 +13.0 94 +15 +15 1020.4 1018.7
04 24.08 В 2 7000 м н/о +14.5 +14.0 97 +14 +14 1020.2 1018.5
05 24.08 В 1 6000 м н/о +13.6 +13.0 96 +14 +14 1020.2 1018.5
06 24.08 В 2 5000 м н/о +13.9 +13.6 98 +14 +14 1020.2 1018.5 +13.0
07 24.08 В 2 8000 м н/о +15.6 +14.9 96 +15 +15 1020.0 1018.3
08 24.08 В 2 10 км н/о +18.3 +15.6 84 +19 +19 1020.0 1018.3
09 24.08 Ю 3 11 км н/о +20.0 +15.6 76 +23 +23 комфорт 1020.0 1018.3
10 24.08 Ю 4 17 км н/о +22.3 +13.9 59 +25 +25 комфорт 1019.8 1018.1
11 24.08 Ю 4 19 км н/о +24.7 +13.7 50 +27 +27 жарко 1019.4 1017.7
12 24.08 Ю 5 20 км н/о +25.4 +13.0 46 +27 +27 жарко 1018.9 1017.2
13 24.08 Ю 5 18 км н/о +25.5 +12.8 45 +27 +27 жарко 1018.6 1017.0
14 24.08 Ю 5 16 км н/о +26.5 +9.8 35 +27 +27 жарко 1018.2 1016.6
15 24.08 ЮВ 5 18 км н/о +27.2 +8.6 31 +27 +27 жарко 1017.7 1016.1
16 24.08 Ю 5 18 км н/о +27.1 +8.5 31 +27 +27 жарко 1017.4 1015.8
17 24.08 Ю 4 16 км н/о +26.9 +10.3 35 +27 +27 жарко 1017.1 1015.5
18 24.08 ЮВ 3 14 км н/о +25.8 +10.2 37 +27 +27 жарко 1017.0 1015.3 +27.4
19 24.08 СЗ 1 14 км н/о +22.6 +11.9 51 +25 +25 комфорт 1017.2 1015.5
20 24.08 В 3 11 км н/о +20.8 +12.5 59 +23 +23 комфорт 1017.5 1015.9
21 24.08 В 2 9000 м н/о +19.2 +12.3 64 +21 +21 комфорт 1017.6 1015.9
22 24.08 В 2 8000 м н/о +17.6 +12.2 71 +18 +18 1017.8 1016.2
23 24.08 ЮВ 1 7000 м н/о +15.6 +12.0 79 +17 +17 1018.1 1016.5
00 25.08 В 1 6000 м н/о +14.1 +11.6 85 +14 +14 1018.3 1016.6
01 25.08 СЗ 2 6000 м н/о +12.9 +10.9 88 +12 +12 1018.1 1016.4
02 25.08 СЗ 1 6000 м н/о +12.8 +11.4 91 +13 +13 1018.1 1016.4
03 25.08 СЗ 2 4400 м н/о +11.9 +10.6 92 +11 +11 1018.2 1016.5
04 25.08 СЗ 2 3400 м н/о +11.5 +10.5 94 +10 +10 1018.1 1016.4
05 25.08 СЗ 2 4500 м н/о +11.6 +10.9 95 +10 +10 1018.2 1016.5
06 25.08 СЗ 1 4500 м н/о +12.1 +11.5 96 +12 +12 1018.5 1016.8 +11.2
07 25.08 СЗ 2 5000 м н/о +13.2 +12.4 95 +13 +13 1018.7 1017.0
08 25.08 СЗ 2 5000 м н/о +14.7 +13.4 92 +15 +15 1019.2 1017.5
09 25.08 Ю 1 6000 м н/о +18.7 +15.5 82 +21 +21 комфорт 1019.0 1017.4
10 25.08 СВ 1 7000 м н/о +21.9 +15.9 69 +26 +26 душно 1018.8 1017.2
11 25.08 В 2 11 км н/о +25.4 +14.8 52 +28 +28 жарко 1018.7 1017.1
12 25.08 Ю 3 12 км н/о +26.9 +14.7 47 +29 +29 жарко 1018.5 1016.9
13 25.08 Ю 4 13 км н/о +28.0 +13.2 40 +30 +30 жарко 1018.1 1016.5
14 25.08 Ю 4 13 км н/о +28.8 +12.5 37 +30 +30 жарко 1017.9 1016.3
15 25.08 ЮВ 3 13 км н/о +29.5 +13.6 38 +31 +31 жарко 1017.7 1016.1
16 25.08 В 5 12 км н/о +29.4 +13.9 39 +31 +31 жарко 1017.5 1015.9
17 25.08 В 5 12 км н/о +28.8 +13.8 40 +31 +31 жарко 1017.6 1016.0

 

Местоположение метеостанции Линтон-он-Уз (Великобритания): широта 54.05 долгота -1.25 высота над уровнем моря 14 м.

В архиве по умолчанию представлена погода в Линтон-он-Узе за последнюю неделю. Архивные данные за месяц целиком и за предыдущие месяцы, начиная с января 2011 года, Вы можете получить, выбрав интересующий диапазон дат из раскрывающегося списка и нажав кнопку "Ввод!".


*Определитесь, кто Вы:
робот инопланетянин человек

Внимание! Время в таблицах - всемирное. Для получения местного времени необходимо прибавить поправку, которая равна 0 ч.

Смотрите также архив погоды в соседних городах и на ближайших метеорологических станциях:

Погода в Дишфорт Эйрфилд (Великобритания) (14 км)
Погода в Топклиффе (Великобритания) (19 км)
Погода в Лееминге (Великобритания) (33 км)
Погода в Бингли (Великобритания) (48 км)
Погода в Файлингдейлсе (Великобритания) (52 км)
Погода в Лидс-Брэдфорд (Великобритания) (57 км)
Погода в Леконфилде (Великобритания) (57 км)
Погода в Лофтусе (Великобритания) (63 км)
Погода в Бридлингтоне (Великобритания) (71 км)
Погода в Скемптоне (Великобритания) (95 км)

Пояснения к столбцам:

Ветер - указаны скорость ветра в м/с - средняя за 10 мин, порывы в срок и между сроками (в фигурных скобках) и направление, откуда дует ветер: С - северный, СВ - северо-восточный, В - восточный, ЮВ - юго-восточный, Ю - южный, ЮЗ - юго-западный, З - западный, СЗ - северо-западный.
Видимость - горизонтальная дальность видимости в метрах или километрах. При видимости от 1 до 10 км при отсутствии осадков обычно наблюдается дымка, при ухудшении видимости до 1 км и менее - туман. В сухую погоду видимость может ухудшаться дымом, пылью или мглою.
Явления - указаны атмосферные явления, наблюдавшиеся в срок или в последний час перед сроком; фигурными скобками обозначены явления, наблюдавшиеся между сроками (за 1-3 часа до срока); квадратными скобками обозначены град или гололедные отложения с указанием их диаметра в мм.
Облачность - указаны через наклонную черту общая и нижняя облачность в баллах и высота нижней границы облаков в метрах; квадратными скобками обозначены формы облаков: Ci - перистые, Cs - перисто-слоистые, Cc - перисто-кучевые, Ac - высококучевые, As - высокослоистые, Sc - слоисто-кучевые, Ns - слоисто-дождевые, Cu - кучевые, Cb - кучево-дождевые. Подробнее классификацию облаков см. в Атласе облаков (PDF).
T - Температура воздуха - температура, измеренная на высоте 2 м над землей.
Td - Температура точки росы - температура, при понижении до которой содержащийся в воздухе водяной пар достигнет насыщения.
f - Относительная влажность воздуха - влажноcть воздуха, измеренная на высоте 2 м над землей.
Te - Эффективная температура - температура, которую ощущает одетый по сезону человек в тени. Характеристика душности погоды. При расчете учитывается влияние влажности воздуха и скорости ветра на теплоощущения человека.
Tes - Эффективная температура на солнце - температура, которую ощущает человек, с поправкой на солнечный нагрев. Характеристика знойности погоды. Зависит от высоты солнца над горизонтом, облачности и скорости ветра. Ночью, в пасмурную погоду, а также при ветре 12 м/с и более поправка равна нулю.
P - Атмосферное давление - приведенное к уровню моря атмосферное давление.
Po - Атмосферное давление - измеренное на уровне метеостанции атмосферное давление.
Tmin - Минимальная температура - минимум температуры воздуха на высоте 2 м над землей.
Tmax - Максимальная температура - максимум температуры воздуха на высоте 2 м над землей.
R - Количество осадков - Количество выпавших осадков за период времени, мм. При наведении курсора мыши на число - период времени, за который выпало указанное количество осадков.
R24 - Количество осадков - Количество выпавших осадков за 24 часа, мм.
S - Снежный покров - Высота снежного покрова, см. При наведении курсора мыши на число - состояние снежного покрова и степень покрытия местности в баллах.